Location: Newark
(47.4333°N, 19.2500°E)
Time: 23:34:04
(UTC+00:00)

ISS - Pass Details

Date: 09 March 2021
Orbit: 418 x 422 km, 51.6° (Epoch: 12 April)

Event Time Altitude Azimuth Distance (km) Brightness Sun altitude
Exits shadow 03:58:08 21° 283° (WNW) 1,001 -2.4 -12.6°
Maximum altitude 04:00:09 56° 211° (SSW) 503 -3.6 -12.3°
Drops below altitude 10° 04:03:26 10° 132° (SE) 1,490 -0.4 -11.7°
Sets 04:05:32 0° 128° (SE) 2,351 0.8 -11.4°
